SCP
3 2 2 2 2 3 2 2 2 2 2 2 1 1 1 0 0 0 1 1 2 2 2 2 1 1 1 1 1 1 1 1 1 1 1 1 1 2 2 2 2 2 2
3 2 2 1 2 2 2 2 2 2 2 2 1 1 1 1 1 1 1 1 2 2 2 2 2 1 1 1 1 1 1 1 1 1 1 1 2 2 2 2 1 1 2
2 2 2 1 2 2 2 2 3 3 3 3 2 1 1 1 1 1 1 1 2 2 2 2 2 1 1 1 1 1 1 1 1 1 1 2 2 2 2 2 1 1 1
2 2 2 2 2 3 3 3 3 4 4 3 3 2 2 1 1 1 1 1 2 2 2 2 2 2 1 1 1 1 1 1 1 2 2 2 2 2 2 1 0 0 1
1 1 1 2 2 3 4 4 5 5 4 4 3 3 2 2 1 1 1 2 2 2 2 2 2 2 1 1 1 1 2 2 2 2 1 1 1 1 1 1 0 0 0
1 1 1 2 3 4 5 6 6 6 5 4 4 4 3 2 1 1 1 2 3 2 2 2 2 2 2 2 2 3 3 2 2 1 1 1 1 1 1 0 0 0 0
2 2 2 2 3 5 7 8 8 7 6 6 5 5 4 3 2 2 2 3 3 3 2 2 2 3 3 4 4 4 3 2 1 1 1 1 1 1 1 1 1 0 0
2 2 2 2 3 5 7 9 9 8 8 8 7 7 6 5 4 3 3 4 4 3 2 2 2 3 4 5 5 4 3 2 2 2 2 2 1 1 1 1 1 0 0
2 3 3 3 3 4 6 8 9 9 10 10 9 8 7 7 6 5 5 5 4 3 2 2 2 4 4 4 4 3 2 2 2 3 3 2 2 2 1 1 1 1 0
3 3 4 5 5 6 5 6 8 10 10 11 9 8 7 7 6 6 5 5 4 3 2 2 3 4 4 4 3 2 2 2 3 3 3 3 3 3 2 2 2 1 1
3 4 5 7 8 9 8 8 8 9 10 9 8 7 6 6 5 5 5 5 4 2 2 3 4 4 4 3 2 2 2 2 2 2 3 3 3 3 3 3 3 2 2
4 4 5 7 9 10 10 10 10 9 9 8 6 5 4 4 4 4 4 3 3 2 3 4 4 4 3 2 2 2 2 2 2 2 2 3 3 3 3 4 4 3 3
5 5 5 6 7 8 9 9 9 9 8 7 6 4 4 4 4 4 3 3 2 2 3 4 4 3 2 2 2 1 1 2 2 2 2 3 4 4 3 3 4 4 4
7 7 6 5 5 5 6 6 7 8 7 7 5 4 4 4 4 3 3 2 2 2 3 3 2 2 2 2 2 1 1 2 2 2 2 3 3 3 3 3 3 4 4
8 8 6 4 4 4 5 6 7 8 8 7 5 4 4 4 3 3 3 3 3 3 3 3 3 2 2 2 2 2 2 2 2 2 2 3 3 3 2 2 2 3 3
9 8 5 4 4 6 7 8 8 8 8 7 6 4 4 3 3 3 3 3 3 4 4 5 4 4 3 3 2 2 2 2 2 3 3 3 2 2 2 2 2 2 3
7 6 4 4 6 8 9 8 7 6 6 7 7 5 4 3 3 3 3 4 4 5 5 6 6 5 5 4 2 2 2 3 3 3 3 3 3 2 2 2 2 3 3
5 4 4 6 8 9 8 7 5 4 4 6 7 6 4 3 3 3 3 3 4 4 5 5 6 6 5 4 3 2 2 3 3 3 3 3 3 3 3 3 3 4 4
6 5 6 8 10 9 7 5 4 3 3 5 7 6 5 4 3 3 3 3 3 4 4 4 4 4 4 3 2 2 2 3 3 4 3 3 3 3 3 3 4 4 5
11 10 10 11 10 9 7 5 4 3 3 4 6 6 5 4 4 3 3 3 3 3 3 3 4 3 3 3 2 2 2 3 4 4 3 3 3 2 2 3 4 4 4
14 14 14 13 11 9 7 6 4 3 2 3 5 6 6 4 4 4 4 3 3 3 3 3 3 3 3 2 2 1 1 2 3 3 3 2 2 2 1 1 2 3 3
13 14 15 14 12 9 7 6 4 2 2 2 4 6 6 5 4 4 4 4 3 4 4 4 3 3 3 3 2 1 1 1 2 2 2 2 2 1 1 1 1 1 1
9 10 11 10 9 8 6 5 3 2 1 2 3 5 5 5 4 4 4 5 4 4 4 4 4 4 4 3 2 1 1 1 1 2 2 2 1 1 0 0 0 0 0
6 6 7 6 6 6 5 4 3 2 1 1 2 4 5 5 5 4 4 5 5 4 4 4 4 4 4 4 3 3 2 1 1 1 1 1 1 1 1 1 1 0 0
7 7 6 6 5 4 3 3 2 2 1 1 1 3 4 5 5 4 3 3 3 4 4 4 4 4 4 4 4 3 2 2 1 1 1 1 1 1 1 1 1 1 1
9 9 8 6 4 3 3 2 2 2 1 1 1 2 3 4 4 4 3 2 2 2 2 3 3 4 4 4 3 3 2 2 1 1 1 1 1 1 1 2 2 2 1
Wind_Speed
6 7 8 8 7 5 5 4 4 2 2 1 1 1 0 0 0 0 1 1 1 1 2 1 1 1 1 1 1 1 1 1 1 2 2 3 1 0 0 1 1 2 3
6 6 7 7 6 6 5 4 4 3 2 1 1 1 1 1 1 0 1 0 1 1 2 2 1 1 1 1 1 1 1 1 1 1 1 2 4 2 1 0 1 1 1
9 8 7 7 6 6 6 5 4 3 2 2 1 1 2 2 2 1 1 1 0 1 1 1 2 1 1 1 1 1 1 0 1 1 2 1 1 2 2 1 1 1 1
8 7 8 7 7 7 6 5 4 3 3 3 3 3 2 1 1 0 0 1 1 1 1 1 1 1 1 1 1 1 1 1 1 1 0 2 3 1 2 3 2 1 1
9 8 8 9 8 7 7 5 4 3 3 3 3 3 2 1 0 1 1 2 1 1 1 1 1 1 1 1 0 0 0 1 1 1 1 0 0 1 2 2 3 2 2
7 7 7 7 6 6 6 5 5 3 3 4 3 3 3 2 1 1 1 1 1 1 2 1 1 0 0 0 0 0 0 0 0 0 0 1 1 1 1 2 2 2 2
6 7 7 7 7 7 6 6 6 4 4 4 4 3 3 3 3 2 1 1 0 0 1 1 1 0 0 0 0 0 0 0 0 1 1 1 1 1 2 1 1 2 2
6 7 8 8 8 8 7 6 6 5 5 5 4 3 3 2 2 2 2 2 1 1 0 0 0 1 1 1 0 0 1 0 1 1 0 0 1 0 1 2 1 1 2
7 7 7 8 7 7 7 7 7 6 6 6 5 4 3 3 2 2 2 1 1 1 0 0 0 1 1 1 1 1 1 1 1 1 1 0 1 0 0 1 2 2 1
6 6 7 6 6 7 6 5 6 7 6 6 5 5 4 3 3 3 2 2 1 1 1 1 0 1 1 1 1 1 1 1 1 1 1 1 1 1 1 0 0 1 2
6 6 5 5 5 5 5 5 5 4 5 5 4 4 4 3 3 3 2 2 1 1 1 1 0 0 0 1 0 0 0 0 1 1 1 1 1 0 1 0 0 0 1
5 5 5 4 3 4 5 5 5 4 4 4 4 4 4 3 3 3 2 2 2 2 2 1 1 1 0 0 1 1 1 0 1 1 1 2 1 1 1 0 0 1 1
5 4 4 3 3 3 4 4 4 4 4 4 4 4 3 3 4 3 3 3 2 2 1 1 1 1 0 0 1 1 1 1 1 1 1 2 1 1 1 1 1 1 1
5 5 4 3 2 3 3 3 3 4 4 4 4 4 4 4 4 3 3 2 2 2 1 1 1 1 1 1 1 0 0 1 1 1 1 1 1 2 2 1 1 1 1
5 5 4 3 3 2 2 2 2 2 3 4 3 3 3 3 3 2 2 2 2 2 1 1 0 0 0 1 1 0 0 0 1 2 2 2 2 2 1 1 1 0 1
5 4 4 3 2 2 2 2 2 1 3 3 3 2 2 2 2 3 2 2 1 1 1 1 1 0 1 0 1 1 0 0 1 2 3 3 3 3 2 2 1 1 1
4 4 4 3 2 2 2 2 2 1 2 2 2 1 2 2 2 2 1 2 2 2 1 1 1 1 1 0 1 2 2 2 2 2 2 3 3 2 2 3 3 3 4
5 4 3 3 2 2 2 2 2 2 2 1 1 1 1 1 1 2 2 2 2 2 2 1 1 1 2 1 1 1 1 2 2 3 3 3 3 3 1 1 2 3 3
5 4 3 3 2 2 2 3 3 2 2 1 0 1 1 1 1 1 1 1 2 1 2 1 2 2 3 2 2 2 1 1 3 3 2 2 2 4 2 1 2 4 5
4 4 3 4 3 2 3 4 2 2 1 1 0 0 1 2 2 2 2 2 2 2 2 2 2 2 3 3 3 2 1 2 2 2 2 3 3 4 2 1 2 3 5
4 4 4 3 2 2 3 3 2 1 1 1 1 0 1 1 2 2 1 1 1 1 1 1 2 2 2 3 2 1 2 2 2 2 3 3 4 4 4 3 3 5 5
4 4 4 2 2 2 3 2 1 1 1 1 1 1 1 1 1 1 1 1 1 1 1 1 2 2 2 2 1 1 2 2 2 3 3 3 4 4 5 3 4 5 3
3 3 4 3 2 1 2 2 1 1 1 2 1 1 1 1 0 1 1 1 1 1 1 1 2 2 2 2 3 2 2 2 2 2 3 4 4 4 4 4 5 3 1
3 3 3 2 1 1 1 1 0 1 2 1 1 1 1 1 1 0 1 1 1 1 1 1 2 2 2 2 2 1 1 2 2 3 4 4 4 3 3 4 3 1 1
2 2 3 2 0 1 1 0 0 1 1 1 1 1 0 0 0 0 1 1 2 3 3 3 3 2 2 4 3 2 1 1 1 1 1 2 2 2 2 2 2 1 1
2 3 2 1 1 1 1 2 1 0 1 0 1 1 1 0 0 0 1 2 2 3 3 4 3 3 4 4 2 2 2 2 1 2 0 1 2 2 2 2 2 2 2
Wind_Direction
171 160 155 150 141 140 136 137 133 136 120 113 116 110 124 19 17 151 134 136 136 136 124 120 91 84 90 87 52 72 50 11 39 46 5 353 359 29 257 211 203 206 198
162 163 158 152 150 154 155 155 158 161 157 152 153 154 160 179 174 5 43 121 138 158 146 133 128 124 104 56 51 76 52 349 56 102 55 357 349 346 332 307 207 227 194
170 170 166 162 159 161 165 165 170 162 166 161 118 91 62 39 34 14 358 355 148 157 120 136 135 136 132 140 164 137 129 252 304 144 139 141 251 306 319 307 290 268 234
167 171 169 168 169 172 168 164 166 162 162 148 134 132 129 142 217 241 335 3 46 88 96 107 121 130 131 162 222 166 162 148 282 311 233 182 177 172 304 318 306 267 238
169 175 181 178 175 170 169 168 162 164 161 151 147 138 132 148 142 57 41 27 18 25 48 91 98 118 152 184 215 118 118 152 188 236 271 300 60 136 160 280 308 316 282
170 174 180 172 171 168 168 166 161 173 171 163 153 145 149 148 118 87 78 45 14 358 352 31 36 94 156 169 191 181 156 188 218 241 192 174 179 215 173 222 270 286 288
175 175 172 171 171 170 174 171 168 180 184 176 176 170 169 167 164 167 156 144 118 353 318 2 15 13 259 121 95 108 287 281 274 253 233 199 209 195 173 179 250 278 290
178 177 177 175 178 178 178 178 179 188 189 184 189 185 171 170 169 169 160 163 174 207 285 34 22 354 3 50 77 102 275 351 283 289 271 257 263 204 168 173 171 315 317
178 174 174 172 178 179 183 185 186 192 193 191 188 184 176 173 176 171 160 163 176 170 124 103 42 352 21 35 59 55 338 355 336 309 311 302 296 333 214 163 155 161 246
179 169 170 176 183 181 181 182 187 194 192 190 187 181 184 179 172 168 168 170 180 165 133 120 63 12 18 28 51 33 348 29 355 14 26 350 326 346 6 87 119 156 177
155 157 173 180 180 171 170 178 186 184 189 191 187 180 180 176 167 172 184 175 167 168 164 165 175 231 35 50 60 327 338 30 348 347 8 335 345 0 331 356 356 156 160
137 146 161 159 156 171 175 181 185 187 189 186 178 178 175 170 175 185 190 179 178 185 180 173 179 198 232 250 207 274 305 296 332 331 345 323 344 353 320 356 314 274 221
119 108 98 111 140 159 169 176 180 185 181 170 166 174 178 179 186 192 192 188 189 194 187 161 165 199 253 284 243 255 316 305 284 304 309 303 324 316 316 326 313 291 312
114 108 96 82 110 130 146 162 176 178 172 168 170 179 189 193 192 189 186 188 186 185 195 171 181 198 229 247 233 161 11 319 301 302 294 291 278 265 265 279 280 287 315
105 111 110 97 97 99 106 123 142 160 164 160 170 191 192 184 175 167 170 174 177 177 162 152 196 259 244 269 192 188 113 340 329 322 315 306 304 280 259 259 254 267 269
116 111 106 100 97 95 93 91 90 104 125 137 163 177 165 158 166 173 176 174 173 162 131 149 182 249 294 351 145 155 149 286 283 298 304 300 297 294 289 290 274 232 232
133 130 126 120 121 115 112 111 110 99 103 125 141 146 152 157 176 175 162 171 175 161 153 181 194 241 281 281 179 169 195 224 248 264 286 303 315 300 283 294 304 296 282
143 146 137 127 120 98 87 92 85 87 87 92 128 136 137 159 171 162 177 191 181 172 177 187 206 230 286 281 208 192 213 233 249 249 250 262 285 302 284 286 310 300 285
143 147 136 123 97 81 87 85 67 59 64 51 171 184 166 158 160 169 182 182 167 189 196 207 222 240 278 278 239 217 215 245 264 263 265 250 262 299 292 273 295 303 299
111 114 103 92 85 74 79 77 62 55 34 334 295 246 178 174 185 188 187 184 180 200 208 235 246 251 275 284 252 226 204 240 271 289 291 279 274 293 289 244 261 287 291
105 102 101 102 112 106 96 88 69 35 309 330 11 341 228 203 189 179 175 164 172 179 203 242 268 270 277 294 267 220 205 225 257 279 286 285 294 297 296 277 250 262 279
97 101 100 81 65 91 97 82 37 311 3 35 29 343 320 248 162 149 164 158 169 173 224 251 282 288 286 272 253 221 223 217 221 255 269 281 297 301 307 298 290 294 314
106 101 104 89 59 71 101 97 321 342 45 34 8 344 349 349 91 154 173 175 190 204 240 243 263 286 296 293 276 255 256 240 227 259 282 296 299 299 302 304 307 312 316
101 100 99 89 46 27 65 105 3 45 69 38 343 332 9 348 352 315 181 182 214 229 248 245 252 275 292 294 298 291 282 290 289 297 311 310 301 301 301 311 313 293 257
85 90 103 108 10 13 40 36 20 72 64 8 327 314 282 247 317 302 247 217 226 216 207 222 223 230 259 261 250 218 236 238 256 316 355 358 350 341 329 319 313 310 310
94 85 75 70 33 17 353 339 333 3 116 0 322 305 275 277 296 71 347 345 281 280 239 228 216 240 249 253 247 245 237 229 164 111 1 291 281 275 279 290 299 292 275